Regional Weather Roundup
Issued by NWS

Home | Current Version | Previous Version | Graphics & Text | Print | Product List | Glossary On
Versions: 1 2 3 4 5 6 7 8 9 10 11 12 13 14 15 16 17 18 19 20 21 22 23 24 25 26 27 28 29 30 31 32 33 34 35 36 37 38 39 40 41 42 43 44 45 46 47 48 49 50
000
ASUS45 KPSR 290200
RWRAZ

ARIZONA HOURLY REGIONAL WEATHER ROUNDUP
NATIONAL WEATHER SERVICE PHOENIX AZ
700 PM MST FRI AUG 28 2015

NOTE: FAIR INDICATES FEW OR NO CLOUDS BELOW 12,000 FEET WITH NO
SIGNIFICANT WEATHER AND/OR OBSTRUCTIONS TO VISIBILITY.

AZZ001>003-036-290300-
NORTHWEST ARIZONA

CITY           SKY/WX    TMP DP  RH WIND       PRES   REMARKS
KINGMAN        PTCLDY    92  48  22 W8        29.98F
$$

AZZ004>008-015-016-018-290300-
NORTH CENTRAL ARIZONA

CITY           SKY/WX    TMP DP  RH WIND       PRES   REMARKS
GRAND CANYON   CLEAR     74  43  32 CALM      30.27S
WILLIAMS       PTCLDY    70  52  52 SE5       30.32S
PRESCOTT       PTCLDY    84  46  26 CALM      30.12S
FLAGSTAFF      NOT AVBL
PAYSON         PTCLDY    82  50  32 NW5       30.14R
PAGE           CLEAR     88  41  19 CALM      30.06S
$$

AZZ009>014-017-290300-
NORTHEAST ARIZONA

CITY           SKY/WX    TMP DP  RH WIND       PRES   REMARKS
WINSLOW        NOT AVBL
SAINT JOHNS    PTCLDY    76  51  41 E6        30.15S
WINDOW ROCK    MOCLDY    76  46  34 CALM      30.25R
SHOW LOW       CLEAR     75  41  29 CALM      30.24S
$$

AZZ023-290300-
GREATER PHOENIX AREA

CITY           SKY/WX    TMP DP  RH WIND       PRES   REMARKS
PHOENIX        MOCLDY   105  51  16 W9        29.74S HX 102
GLENDALE       MOCLDY   106  48  14 S7        29.76F HX 102
LUKE AFB       MOCLDY   103  57  22 S8        29.74S HX 102
DEER VALLEY    MOCLDY   103  51  17 SW7       29.77S HX 100
SCOTTSDALE     MOCLDY   103  50  17 SW6       29.79S HX 100
MESA-GATEWAY   PTCLDY   102  50  17 W6        29.80S
CHANDLER       MOCLDY   102  52  18 SW9       29.77S HX 100
$$

AZZ027-028-290300-
SOUTHWEST MARICOPA COUNTY AND PINAL COUNTY

CITY           SKY/WX    TMP DP  RH WIND       PRES   REMARKS
CASA GRANDE    PTCLDY   100  52  19 CALM      29.79F
GILA BEND      FAIR     105  53  17 W6        29.74S HX 102
$$

AZZ503-504-507>509-290300-
SOUTHEAST ARIZONA

CITY           SKY/WX    TMP DP  RH WIND       PRES   REMARKS
TUCSON         PTCLDY    97  53  22 W6        29.92R
DAVIS-MONTHAN  MOCLDY    95  55  26 SW7       29.91R
RYAN FIELD     CLEAR     97  55  24 SW6       29.90R
SAFFORD        CLEAR     91  53  27 E5        29.92F
$$

AZZ020-021-025-026-031-290300-
SOUTHWEST ARIZONA

CITY           SKY/WX    TMP DP  RH WIND       PRES   REMARKS
YUMA           NOT AVBL
$$

CAZ031-033-041-043-047-048-061-290300-
SOUTHERN CALIFORNIA

CITY           SKY/WX    TMP DP  RH WIND       PRES   REMARKS
DOWNTOWN L.A.  CLEAR     83  62  49 VRB6      29.81F
L.A. AIRPORT   PTCLDY    77  69  76 W12       29.81F
SAN DIEGO      PTCLDY    85  58  39 NW6       29.84R
BURBANK        CLEAR     91  54  28 S7        29.82F
ONTARIO        PTCLDY    93  54  26 SW10      29.82S
RIVERSIDE      CLEAR     93  50  23 W12       29.82S
PALM SPRINGS   CLEAR    107  50  15 E9        29.73S HX 104
EL CENTRO NAS  CLEAR    108  56  18 E5        29.69S HX 107
IMPERIAL       CLEAR    110  58  18 SE6       29.67S HX 110
BLYTHE         CLEAR    107  61  22 S10       29.70F HX 109
$$

NVZ020-UTZ003-290300-
SOUTHERN NEVADA-UTAH

CITY           SKY/WX    TMP DP  RH WIND       PRES   REMARKS
LAS VEGAS      NOT AVBL
SALT LAKE CITY MOCLDY    87  39  18 N8        30.03F
$$

NMZ009-TXZ055-290300-
NEW MEXICO-WEST TEXAS

CITY           SKY/WX    TMP DP  RH WIND       PRES   REMARKS
ALBUQUERQUE    MOCLDY    76  48  37 E18G26    30.15R
EL PASO        CLOUDY    77  60  55 E18G28    30.07R
$$


........................KEY........................
SKY/WX - SKY CONDITION/WEATHER
TMP    - TEMPERATURE IN FAHRENHEIT
DP     - DEW POINT IN FAHRENHEIT
RH     - RELATIVE HUMIDITY IN PERCENT
WIND   - DIRECTION AND SPEED IN MILES PER HOUR (MPH)
VRB    - VARIABLE WIND DIRECTION
PRES   - MEAN SEA LEVEL PRESSURE IN INCHES OF MERCURY
         F - FALLING PRESSURE   R - RISING PRESSURE
         S - STEADY PRESSURE
VSB    - VISIBILITY IN MILES
HX     - HEAT INDEX IN FAHRENHEIT
WCI    - WIND CHILL INDEX IN FAHRENHEIT
TC     - TEMPERATURE IN CELSIUS WHICH IS ALSO KNOWN AS
         TEMPERATURE IN CENTIGRADE
AFB    - AIR FORCE BASE
         LUKE AFB IS LUKE AIR FORCE BASE
         DAVIS-MONTHAN IS DAVIS-MONTHAN AIR FORCE BASE
NAS    - NAVAL AIR STATION
         EL CENTRO NAS IS EL CENTRO NAVAL AIR STATION
N/A    - NOT AVAILABLE



USA.gov is the U.S. government's official web portal to all federal, state and local government web resources and services.